2023/04/26 00:00:00, 1.9,13.4
2023/04/26 00:10:00, 0.8,13.6
2023/04/26 00:20:00, 7.2,13.5
2023/04/26 00:30:00, 5.9,13.4
2023/04/26 00:40:00, 0.0,13.5
2023/04/26 00:50:00, 5.9,13.6
2023/04/26 01:00:00,---,13.2
2023/04/26 01:10:00, 0.1,13.7
2023/04/26 01:20:00, 2.7,13.7
2023/04/26 01:30:00, 7.9,13.4
2023/04/26 01:40:00, 0.7,13.4
2023/04/26 01:50:00, 0.0,13.7
2023/04/26 02:00:00,10.7,13.8
2023/04/26 02:10:00,20.0,13.7
2023/04/26 02:20:00,24.2,13.4
2023/04/26 02:30:00,27.0,13.2
2023/04/26 02:40:00,26.3,12.7
2023/04/26 02:50:00,28.2,12.7
2023/04/26 03:00:00,28.8,12.3
2023/04/26 03:10:00,23.4,12.4
2023/04/26 03:20:00, 4.1,12.2
2023/04/26 03:30:00, 3.5,12.0
2023/04/26 03:40:00,---,11.7
2023/04/26 03:50:00,28.2,11.5
2023/04/26 04:00:00, 7.5,11.6
2023/04/26 04:10:00,13.9,11.4
2023/04/26 04:20:00,12.1,11.4
2023/04/26 04:30:00,10.5,11.4
2023/04/26 04:40:00, 8.8,11.3
2023/04/26 04:50:00, 1.9,11.2
2023/04/26 05:00:00, 1.0,11.4
2023/04/26 05:10:00, 0.9,11.3
2023/04/26 05:20:00, 1.1,11.2
2023/04/26 05:30:00, 0.3,11.0
2023/04/26 05:40:00, 0.6,11.0
2023/04/26 05:50:00, 1.0,10.9
2023/04/26 06:00:00, 0.8,10.9
2023/04/26 06:10:00, 0.8,11.3
2023/04/26 06:20:00, 0.9,10.6
2023/04/26 06:30:00, 0.9,10.6
2023/04/26 06:40:00, 0.8,11.0
2023/04/26 06:50:00, 0.8,10.8
2023/04/26 07:00:00, 1.2,10.6
2023/04/26 07:10:00, 0.9,10.5
2023/04/26 07:20:00, 0.6,10.3
2023/04/26 07:30:00, 0.7,10.7
2023/04/26 07:40:00, 0.7,10.6
2023/04/26 07:50:00, 0.8,10.6
2023/04/26 08:00:00, 0.7,10.8
2023/04/26 08:10:00, 0.9,10.9
2023/04/26 08:20:00, 0.8,10.3
2023/04/26 08:30:00, 0.7,10.6
2023/04/26 08:40:00, 0.7,10.6
2023/04/26 08:50:00, 0.8,10.6
2023/04/26 09:00:00, 0.9,10.6
2023/04/26 09:10:00, 1.0,10.9
2023/04/26 09:20:00, 2.6,10.9
2023/04/26 09:30:00, 3.9,11.0
2023/04/26 09:40:00, 2.8,10.8
2023/04/26 09:50:00, 2.1,10.9
2023/04/26 10:00:00, 2.1,11.1
2023/04/26 10:10:00, 2.8,11.4
2023/04/26 10:20:00, 2.7,11.5
2023/04/26 10:30:00, 4.3,11.2
2023/04/26 10:40:00, 8.5,11.7
2023/04/26 10:50:00,10.5,11.7
2023/04/26 11:00:00, 9.9,11.2
2023/04/26 11:10:00,10.7,11.3
2023/04/26 11:20:00,13.5,11.5
2023/04/26 11:30:00,13.5,11.5
2023/04/26 11:40:00,13.5,11.7
2023/04/26 11:50:00,13.5,11.0
2023/04/26 12:00:00,13.1,11.1
2023/04/26 12:10:00,12.0,10.6
2023/04/26 12:20:00,12.1,10.9
2023/04/26 12:30:00,12.3,11.6
2023/04/26 12:40:00,13.0,11.5
2023/04/26 12:50:00,12.8,11.1
2023/04/26 13:00:00,12.7,10.8
2023/04/26 13:10:00,12.8,11.0
2023/04/26 13:20:00,12.9,11.5
2023/04/26 13:30:00,13.1,12.3
2023/04/26 13:40:00,13.0,11.7
2023/04/26 13:50:00,13.3,11.8
2023/04/26 14:00:00,13.4,11.6
2023/04/26 14:10:00,13.7,11.7
2023/04/26 14:20:00,14.0,10.9
2023/04/26 14:30:00,14.1,10.9
2023/04/26 14:40:00,14.0,10.5
2023/04/26 14:50:00,14.1,10.8
2023/04/26 15:00:00,13.8,12.4
2023/04/26 15:10:00,12.9,12.8
2023/04/26 15:20:00,14.2,11.1
2023/04/26 15:30:00,14.4,10.8
2023/04/26 15:40:00,14.4,11.2
2023/04/26 15:50:00,14.2,11.0
2023/04/26 16:00:00,13.9,11.6
2023/04/26 16:10:00,13.9,11.3
2023/04/26 16:20:00,13.6,11.7
2023/04/26 16:30:00,14.1,12.1
2023/04/26 16:40:00,14.6,12.0
2023/04/26 16:50:00,14.0,11.4
2023/04/26 17:00:00,13.7,11.2
2023/04/26 17:10:00,13.6,10.9
2023/04/26 17:20:00,13.2,10.9
2023/04/26 17:30:00,13.1,10.9
2023/04/26 17:40:00,12.3,10.7
2023/04/26 17:50:00,10.2,10.9
2023/04/26 18:00:00, 9.5,10.9
2023/04/26 18:10:00, 8.3,10.6
2023/04/26 18:20:00, 8.1,10.7
2023/04/26 18:30:00, 7.5,10.7
2023/04/26 18:40:00, 5.1,11.2
2023/04/26 18:50:00, 3.4,10.9
2023/04/26 19:00:00, 3.4,10.8
2023/04/26 19:10:00, 3.3,10.9
2023/04/26 19:20:00, 3.7,10.6
2023/04/26 19:30:00, 3.9,10.0
2023/04/26 19:40:00, 4.2,10.2
2023/04/26 19:50:00, 3.7,10.4
2023/04/26 20:00:00, 4.5, 9.9
2023/04/26 20:10:00, 7.0, 9.6
2023/04/26 20:20:00, 8.5, 9.5
2023/04/26 20:30:00,12.7, 9.9
2023/04/26 20:40:00,12.9, 9.3
2023/04/26 20:50:00,15.1, 9.6
2023/04/26 21:00:00,14.2, 9.5
2023/04/26 21:10:00,10.7, 9.3
2023/04/26 21:20:00,13.9, 9.4
2023/04/26 21:30:00,13.3, 9.4
2023/04/26 21:40:00,17.0, 9.1
2023/04/26 21:50:00,21.5, 8.7
2023/04/26 22:00:00,23.5, 9.4
2023/04/26 22:10:00,21.0, 9.2
2023/04/26 22:20:00,18.4, 9.4
2023/04/26 22:30:00,15.9, 8.4
2023/04/26 22:40:00,16.4, 8.4
2023/04/26 22:50:00,17.3, 8.7
2023/04/26 23:00:00,15.9, 8.6
2023/04/26 23:10:00,14.2, 8.9
2023/04/26 23:20:00,11.5, 9.0
2023/04/26 23:30:00,13.8, 8.3
2023/04/26 23:40:00,18.1, 8.0
2023/04/26 23:50:00,20.1, 8.0
